Location: Unspecified
(42.9300°N, 71.1866°W)
Time: 09:32:24
(UTC-04:00)

CZ-3 Stage 3 - Visible Passes

Search period start: 21 October 2014 00:00
Search period end: 31 October 2014 00:00
Orbit: 414 x 34825 km, 30.9° (Epoch: 18 October)

Date Brightness Start Highest point End Pass type
(mag) Time Alt. Az. Time Alt. Az. Time Alt. Az.
21 Oct 5.7 08:05:59 10° W 08:54:35 43° SSW 09:00:50 10° SE visible
21 Oct 7.4 21:28:07 10° SSE 05:08:18 59° S 05:26:59 10° E visible
22 Oct 8.2 20:49:57 10° SE 00:51:32 37° SE 01:45:53 10° E visible
24 Oct 5.6 08:05:40 10° W 08:51:03 42° SSW 08:57:15 10° SE visible
24 Oct 7.3 21:18:52 10° SSE 05:05:20 60° S 05:23:32 10° E visible
25 Oct 8.2 20:34:10 10° SE 00:48:19 39° SE 01:42:55 10° E visible
27 Oct 5.6 08:04:59 10° W 08:47:27 40° SW 08:53:36 10° SE visible
27 Oct 7.2 21:10:04 10° SSE 05:02:18 61° S 05:20:02 10° E visible
28 Oct 8.1 20:18:31 10° SE 00:45:04 41° SE 01:39:52 10° E visible
30 Oct 5.6 08:04:01 10° W 08:43:47 39° SW 08:49:55 10° SSE visible
30 Oct 9.5 21:01:42 10° S 00:00:00 30° S 00:00:00 30° S visible
